Location: *
(46.1866°S, 178.5290°W)
Time: 20:25:15
(UTC+00:00)

Cosmos 1939 Rocket - Pass Details

Date: 19 May 2021
Orbit: 530 x 585 km, 97.4° (Epoch: 13 June)

Event Time Altitude Azimuth Distance (km) Brightness Sun altitude
Exits shadow 07:14:31 37° 229° (SW) 938 4.3 -28.6°
Maximum altitude 07:15:07 39° 250° (WSW) 901 4.2 -28.7°
Drops below altitude 10° 07:19:01 10° 319° (NW) 1,923 6.0 -29.3°
Sets 07:21:15 0° 326° (NNW) 2,814 6.8 -29.7°
